TimePDT,TemperatureF,Dew PointF,Humidity,Sea Level PressureIn,VisibilityMPH,Wind Direction,Wind SpeedMPH,Gust SpeedMPH,PrecipitationIn,Events,Conditions,WindDirDegrees,DateUTC
12:53 AM,55.0,52.0,89,30.19,10.0,West,11.5,-,N/A,,Overcast,260,2013-05-27 07:53:00
1:53 AM,54.0,52.0,93,30.18,10.0,WSW,10.4,-,N/A,,Overcast,250,2013-05-27 08:53:00
2:53 AM,54.0,52.0,93,30.17,3.0,NW,5.8,-,N/A,,Overcast,320,2013-05-27 09:53:00
3:53 AM,53.1,52.0,96,30.15,4.0,Calm,Calm,-,N/A,,Overcast,0,2013-05-27 10:53:00
4:53 AM,53.1,51.1,93,30.15,10.0,West,4.6,-,N/A,,Overcast,270,2013-05-27 11:53:00
5:43 AM,53.6,51.8,94,30.11,10.0,NNW,3.5,-,N/A,,Scattered Clouds,340,2013-05-27 12:43:00
5:53 AM,53.1,51.1,93,30.14,10.0,Calm,Calm,-,N/A,,Partly Cloudy,0,2013-05-27 12:53:00
6:53 AM,54.0,51.1,90,30.14,10.0,NW,3.5,-,N/A,,Clear,310,2013-05-27 13:53:00
7:53 AM,55.9,50.0,80,30.16,10.0,West,6.9,-,N/A,,Partly Cloudy,260,2013-05-27 14:53:00
8:53 AM,57.9,50.0,75,30.17,10.0,West,4.6,-,N/A,,Clear,280,2013-05-27 15:53:00
9:53 AM,62.1,48.9,62,30.17,10.0,WSW,5.8,-,N/A,,Clear,250,2013-05-27 16:53:00
10:53 AM,64.9,50.0,58,30.14,10.0,Calm,Calm,-,N/A,,Clear,0,2013-05-27 17:53:00
11:53 AM,66.0,51.1,59,30.14,10.0,West,6.9,17.3,N/A,,Partly Cloudy,270,2013-05-27 18:53:00
12:53 PM,66.9,52.0,59,30.14,10.0,West,11.5,-,N/A,,Clear,280,2013-05-27 19:53:00
1:53 PM,63.0,52.0,67,30.16,10.0,West,12.7,-,N/A,,Clear,280,2013-05-27 20:53:00
2:53 PM,62.1,53.1,72,30.15,10.0,West,15.0,-,0.00,Rain,Light Rain,270,2013-05-27 21:53:00
3:53 PM,64.0,52.0,65,30.13,10.0,West,13.8,19.6,0.00,,Scattered Clouds,260,2013-05-27 22:53:00
4:53 PM,63.0,52.0,67,30.13,10.0,WNW,13.8,-,N/A,,Clear,290,2013-05-27 23:53:00
5:53 PM,62.1,52.0,70,30.12,10.0,West,11.5,-,N/A,,Mostly Cloudy,280,2013-05-28 00:53:00
6:53 PM,61.0,51.1,70,30.11,10.0,WSW,11.5,-,N/A,,Overcast,250,2013-05-28 01:53:00
7:53 PM,60.1,51.1,72,30.11,10.0,West,6.9,-,N/A,,Overcast,280,2013-05-28 02:53:00
8:53 PM,60.1,51.1,72,30.10,10.0,West,6.9,-,N/A,,Overcast,260,2013-05-28 03:53:00
9:37 PM,60.8,51.8,72,30.07,10.0,WNW,6.9,-,N/A,,Overcast,300,2013-05-28 04:37:00
9:53 PM,60.1,51.1,72,30.10,10.0,West,5.8,-,N/A,,Overcast,280,2013-05-28 04:53:00
10:53 PM,60.1,52.0,75,30.09,10.0,NW,6.9,-,N/A,,Overcast,320,2013-05-28 05:53:00
11:53 PM,59.0,53.1,81,30.09,10.0,West,5.8,-,N/A,,Overcast,280,2013-05-28 06:53:00